GW5132 Weather Reports


time (UTC)temp
C
wind
direction
speed
KPH
gust
KPH
rain 1hr
cm
rain 24hr
cm
rain mn
cm
humidity
%
barometer
mb
20260508063216 2 140 0.0 0.0 0.00 0.00 0.00 96 978.8
20260508062713 2 140 0.0 0.0 0.00 0.00 0.00 96 978.8
20260508062210 2 140 0.0 0.0 0.00 0.00 0.00 96 978.8
20260508061707 2 140 0.0 0.0 0.00 0.00 0.00 96 978.5
20260508061205 2 140 0.0 0.0 0.00 0.00 0.00 96 978.8
20260508060702 2 140 0.0 0.0 0.00 0.00 0.00 96 978.8
20260508060159 2 140 0.0 0.0 0.00 0.00 0.00 95 978.7
20260508055654 2 140 0.0 0.0 0.00 0.00 0.00 95 978.7
20260508055151 2 140 0.0 0.0 0.00 0.00 0.00 95 978.7
20260508054647 2 139 0.0 0.0 0.00 0.00 0.00 95 978.7
20260508054145 3 139 0.0 0.0 0.00 0.00 0.00 95 978.7
20260508053642 3 139 0.0 0.0 0.00 0.00 0.00 95 978.8
20260508053140 3 139 0.0 0.0 0.00 0.00 0.00 94 978.9
20260508052637 3 139 0.0 0.0 0.00 0.00 0.00 94 978.9
20260508052134 3 139 0.0 0.0 0.00 0.00 0.00 94 979.1
20260508051630 3 139 0.0 0.0 0.00 0.00 0.00 94 978.9
20260508051125 3 139 0.0 0.0 0.00 0.00 0.00 94 979.0
20260508050621 3 139 0.0 0.0 0.00 0.00 0.00 93 979.0
20260508050120 3 128 0.0 0.0 0.00 0.00 0.00 94 978.8
20260508045615 3 128 0.0 0.0 0.00 0.00 0.00 94 979.0
20260508045113 3 128 0.0 0.0 0.00 0.00 0.00 94 978.9
20260508044610 3 128 0.0 0.0 0.00 0.00 0.00 93 979.0
20260508044106 3 128 0.0 0.0 0.00 0.00 0.00 93 978.8
20260508043603 3 128 0.0 0.0 0.00 0.00 0.00 93 979.0
20260508043101 3 128 0.0 0.0 0.00 0.00 0.00 93 978.5
20260508042556 3 128 0.0 0.0 0.00 0.00 0.00 92 978.6
20260508042054 3 128 0.0 0.0 0.00 0.00 0.00 92 978.7
20260508041550 4 128 0.0 0.0 0.00 0.00 0.00 92 978.7
20260508041047 4 128 0.0 0.0 0.00 0.00 0.00 92 978.7
20260508040544 4 127 0.0 0.0 0.00 0.00 0.00 91 978.6
20260508040042 4 127 0.0 0.0 0.00 0.15 0.15 91 978.5
20260508035538 4 127 0.0 0.0 0.00 0.15 0.15 91 978.5
20260508035036 4 127 0.0 0.0 0.00 0.15 0.15 91 978.5
20260508034532 4 127 0.0 0.0 0.00 0.15 0.15 90 978.7
20260508034029 5 127 0.0 0.0 0.00 0.15 0.15 90 978.5
20260508033527 5 127 0.0 0.0 0.00 0.15 0.15 90 978.3
20260508033025 5 127 0.0 0.0 0.00 0.15 0.15 89 978.3
20260508032521 5 127 0.0 0.0 0.00 0.15 0.15 89 978.4
20260508032019 5 127 0.0 0.0 0.00 0.15 0.15 89 978.4
20260508031516 5 127 0.0 0.0 0.00 0.15 0.15 89 978.4
20260508031011 5 127 0.0 0.0 0.00 0.15 0.15 89 978.4
20260508030509 5 127 0.0 0.0 0.00 0.15 0.15 88 978.2
20260508030007 5 127 0.0 0.0 0.00 0.15 0.15 87 978.4
20260508025502 5 127 0.0 0.0 0.00 0.15 0.15 88 978.1
20260508024959 5 127 0.0 0.0 0.00 0.15 0.15 87 978.4
20260508024455 5 127 0.0 0.0 0.00 0.15 0.15 88 978.0
20260508023952 5 127 0.0 0.0 0.00 0.15 0.15 86 977.9
20260508023449 6 127 0.0 0.0 0.00 0.15 0.15 86 978.2
20260508022947 6 127 0.0 0.0 0.00 0.15 0.15 85 978.0
20260508022442 6 127 0.0 0.0 0.00 0.15 0.15 86 977.9
20260508021939 6 127 0.0 0.0 0.00 0.15 0.15 86 977.8
20260508021435 6 115 0.0 0.0 0.00 0.15 0.15 84 977.8
20260508020931 6 115 0.0 0.0 0.00 0.15 0.15 84 977.7
20260508020429 6 115 0.0 0.0 0.00 0.15 0.15 83 977.6
20260508015926 6 115 0.0 0.0 0.00 0.15 0.15 82 977.7
20260508015424 6 115 0.0 0.0 0.00 0.15 0.15 82 977.4
20260508014920 7 115 0.0 0.0 0.00 0.15 0.15 81 977.4
20260508014417 7 115 0.0 0.0 0.00 0.15 0.15 80 977.5
20260508013912 7 115 0.0 0.0 0.00 0.15 0.15 80 977.4
20260508013409 7 113 0.0 0.0 0.00 0.15 0.15 79 977.2
20260508012906 7 113 0.0 0.0 0.00 0.15 0.15 78 977.0
20260508012403 8 113 0.0 0.0 0.00 0.15 0.15 77 976.9
20260508011901 8 113 0.0 0.0 0.00 0.15 0.15 77 977.2
20260508011359 8 113 0.0 0.0 0.00 0.15 0.15 75 976.8
20260508010855 8 113 0.0 0.0 0.00 0.15 0.15 74 976.8
20260508010353 8 113 0.0 0.0 0.00 0.15 0.15 70 976.6
20260508005850 9 113 0.0 0.0 0.00 0.15 0.15 69 976.7
20260508005346 9 113 0.0 0.0 0.00 0.15 0.15 67 976.7
20260508004843 10 113 0.0 0.0 0.00 0.15 0.15 67 976.6
20260508004339 10 113 0.0 0.0 0.00 0.15 0.15 67 976.5
20260508003836 10 129 0.0 0.0 0.00 0.15 0.15 63 976.5
20260508003333 10 104 0.0 0.0 0.00 0.15 0.15 63 976.4
20260508002830 10 93 0.0 3.2 0.00 0.15 0.15 63 976.4
20260508002326 11 213 0.0 3.2 0.00 0.15 0.15 61 976.2
20260508001823 10 203 1.6 1.6 0.00 0.15 0.15 64 976.1
20260508001319 11 163 0.0 0.0 0.00 0.15 0.15 65 976.2
20260508000815 11 155 0.0 0.0 0.00 0.15 0.15 61 975.9
20260508000312 11 157 0.0 0.0 0.00 0.15 0.15 56 975.8
20260507235808 11 173 3.2 3.2 0.00 0.15 0.15 62 976.0
20260507235307 12 164 0.0 0.0 0.00 0.15 0.15 59 975.7
20260507234803 13 156 0.0 1.6 0.00 0.15 0.15 53 975.8
20260507234259 13 281 0.0 3.2 0.00 0.15 0.15 47 975.6
20260507233755 14 71 0.0 1.6 0.00 0.15 0.15 42 975.6
20260507233254 14 6 1.6 1.6 0.00 0.15 0.15 41 975.5
20260507232751 14 42 0.0 0.0 0.00 0.15 0.15 39 975.6
20260507232248 14 187 0.0 4.8 0.00 0.15 0.15 41 975.6
20260507231744 15 50 0.0 6.4 0.00 0.15 0.15 41 975.6
20260507231241 15 154 3.2 4.8 0.00 0.15 0.15 41 975.5
20260507230738 15 215 0.0 6.4 0.00 0.15 0.15 41 975.4
20260507230235 15 26 1.6 9.7 0.00 0.15 0.15 39 975.3
20260507225734 16 328 3.2 3.2 0.00 0.15 0.15 38 975.3
20260507225231 16 334 1.6 1.6 0.00 0.15 0.15 39 975.3
20260507224727 16 213 6.4 9.7 0.00 0.15 0.15 39 975.2
20260507224224 16 219 6.4 6.4 0.00 0.15 0.15 40 975.3
20260507223720 16 318 4.8 9.7 0.00 0.15 0.15 37 975.0
20260507223217 15 38 3.2 9.7 0.00 0.15 0.15 40 975.4
20260507222714 16 38 4.8 11.3 0.00 0.15 0.15 38 975.2
20260507222210 16 336 0.0 3.2 0.00 0.15 0.15 41 975.2
20260507221707 15 136 1.6 6.4 0.00 0.15 0.15 40 975.4
20260507221203 16 50 1.6 3.2 0.00 0.15 0.15 42 975.2
20260507220700 16 310 1.6 4.8 0.00 0.15 0.15 40 974.8
20260507220158 15 64 1.6 9.7 0.00 0.15 0.15 39 975.0
20260507215654 15 309 3.2 6.4 0.00 0.15 0.15 39 974.9
20260507215152 16 319 1.6 3.2 0.00 0.15 0.15 43 974.7
20260507214649 17 330 3.2 12.9 0.00 0.15 0.15 38 974.8
20260507214145 16 187 6.4 14.5 0.00 0.15 0.15 39 974.5
20260507213641 15 40 1.6 6.4 0.00 0.15 0.15 42 974.7
20260507213139 16 71 0.0 4.8 0.00 0.15 0.15 39 974.5
20260507212634 16 35 3.2 6.4 0.00 0.15 0.15 41 974.6
20260507212131 17 17 11.3 16.1 0.00 0.15 0.15 39 974.6
20260507211628 17 85 4.8 9.7 0.00 0.15 0.15 40 974.3
20260507211124 16 219 1.6 6.4 0.00 0.15 0.15 49 974.2
20260507210622 16 262 0.0 9.7 0.00 0.15 0.15 39 974.4
20260507210118 16 240 1.6 3.2 0.00 0.15 0.15 40 974.4
20260507205615 16 66 1.6 11.3 0.00 0.15 0.15 42 974.4
20260507205111 16 26 3.2 4.8 0.00 0.15 0.15 41 974.3
20260507204607 16 234 3.2 9.7 0.00 0.15 0.15 39 974.4
20260507204105 16 240 1.6 14.5 0.00 0.15 0.15 42 974.4
20260507203603 16 309 3.2 14.5 0.00 0.15 0.15 41 974.2
20260507203100 16 334 6.4 20.9 0.00 0.15 0.15 42 974.4
20260507202555 17 168 9.7 17.7 0.00 0.15 0.15 41 974.6
20260507202052 17 224 1.6 9.7 0.00 0.15 0.15 39 974.2
20260507201547 15 223 3.2 6.4 0.00 0.15 0.15 46 974.4
20260507201044 15 316 1.6 9.7 0.00 0.15 0.15 46 974.5
20260507200540 16 47 0.0 4.8 0.00 0.15 0.15 41 974.7
20260507200036 16 305 0.0 3.2 0.00 0.15 0.15 48 974.5
20260507195533 16 277 9.7 14.5 0.00 0.15 0.15 42 974.9
20260507195031 16 133 3.2 4.8 0.00 0.15 0.15 38 974.9
20260507194527 15 5 1.6 6.4 0.00 0.15 0.15 44 975.0
20260507194023 16 67 11.3 17.7 0.00 0.15 0.15 41 975.0
20260507193521 16 340 0.0 12.9 0.00 0.15 0.15 41 975.0
20260507193018 15 197 8.0 9.7 0.00 0.15 0.15 42 975.0
20260507192514 16 207 9.7 12.9 0.00 0.15 0.15 40 975.0
20260507192011 16 90 6.4 12.9 0.00 0.15 0.15 41 975.0
20260507191506 16 13 8.0 12.9 0.00 0.15 0.15 46 975.0
20260507191003 17 28 6.4 11.3 0.00 0.15 0.15 45 975.2
20260507190500 16 31 0.0 11.3 0.00 0.15 0.15 44 974.9
20260507185959 15 15 1.6 3.2 0.00 0.15 0.15 44 975.3
20260507185456 15 290 3.2 12.9 0.00 0.15 0.15 46 975.0
20260507184953 15 351 1.6 11.3 0.00 0.15 0.15 44 975.3
20260507184451 15 306 4.8 6.4 0.00 0.15 0.15 44 975.2
20260507183949 16 310 1.6 4.8 0.00 0.15 0.15 45 975.3
20260507183444 16 315 0.0 6.4 0.00 0.15 0.15 45 975.4
20260507182942 15 271 0.0 1.6 0.00 0.15 0.15 44 975.3
20260507182438 15 19 3.2 11.3 0.00 0.15 0.15 45 975.3
20260507181934 16 289 0.0 12.9 0.00 0.15 0.15 45 975.3
20260507181430 16 310 4.8 9.7 0.00 0.15 0.15 44 975.4
20260507180927 15 83 1.6 6.4 0.00 0.15 0.15 45 975.2
20260507180424 15 72 4.8 9.7 0.00 0.15 0.15 48 975.5
20260507175920 15 59 4.8 9.7 0.00 0.15 0.15 47 975.6
20260507175417 15 110 3.2 6.4 0.00 0.15 0.15 50 975.4
20260507174914 15 62 6.4 9.7 0.00 0.15 0.15 48 975.4
20260507174412 15 278 3.2 6.4 0.00 0.15 0.15 50 975.7
20260507173909 14 297 0.0 6.4 0.00 0.15 0.15 49 975.7
20260507173406 15 301 1.6 3.2 0.00 0.15 0.15 51 975.6
20260507172903 15 137 1.6 3.2 0.00 0.15 0.15 48 975.7
20260507172359 15 27 4.8 9.7 0.00 0.15 0.15 47 975.8
20260507171855 15 56 0.0 3.2 0.00 0.15 0.15 47 975.8
20260507171352 15 303 1.6 6.4 0.00 0.15 0.15 48 975.8
20260507170849 14 320 4.8 9.7 0.00 0.15 0.15 51 975.9
20260507170346 14 43 6.4 11.3 0.00 0.15 0.15 50 976.0
20260507165841 14 39 4.8 11.3 0.00 0.15 0.15 55 975.8
20260507165338 13 223 1.6 9.7 0.00 0.15 0.15 50 976.0
20260507164834 15 44 0.0 0.0 0.00 0.15 0.15 51 976.3
20260507164331 15 17 1.6 3.2 0.00 0.15 0.15 47 976.2
20260507163828 14 84 0.0 6.4 0.00 0.15 0.15 53 976.5
20260507163326 13 234 6.4 9.7 0.00 0.15 0.15 49 976.4
20260507162821 13 114 3.2 4.8 0.00 0.15 0.15 52 976.6
20260507162317 13 166 4.8 6.4 0.00 0.15 0.15 55 976.3
20260507161815 13 33 0.0 4.8 0.00 0.15 0.15 53 976.6
20260507161311 13 29 1.6 16.1 0.00 0.15 0.15 57 976.6
20260507160808 14 23 4.8 4.8 0.00 0.15 0.15 51 976.6
20260507160304 14 205 9.7 12.9 0.00 0.15 0.15 53 976.7
20260507155800 14 128 3.2 3.2 0.00 0.15 0.15 52 976.5
20260507155256 14 185 4.8 6.4 0.00 0.15 0.15 54 976.8
20260507154753 14 91 3.2 6.4 0.00 0.15 0.15 55 976.7
20260507154250 13 100 1.6 3.2 0.00 0.15 0.15 51 976.8
20260507153747 13 40 6.4 6.4 0.00 0.15 0.15 56 977.0
20260507153243 13 22 4.8 4.8 0.00 0.15 0.15 57 976.8
20260507152740 13 61 1.6 3.2 0.00 0.15 0.15 58 976.8
20260507152236 14 239 4.8 6.4 0.00 0.15 0.15 56 976.9
20260507151732 13 24 4.8 9.7 0.00 0.15 0.15 60 976.9
20260507151229 14 292 3.2 6.4 0.00 0.15 0.15 56 976.8
20260507150726 14 48 3.2 4.8 0.00 0.15 0.15 57 976.9
20260507150223 14 319 4.8 9.7 0.00 0.15 0.15 62 977.0
20260507145718 13 224 0.0 6.4 0.00 0.15 0.15 58 976.9
20260507145215 13 321 4.8 9.7 0.00 0.15 0.15 62 977.0
20260507144712 13 85 0.0 6.4 0.00 0.15 0.15 61 977.0
20260507144210 13 194 0.0 0.0 0.00 0.15 0.15 61 977.0
20260507143706 13 247 0.0 3.2 0.00 0.15 0.15 59 977.1
20260507143203 13 115 1.6 4.8 0.00 0.15 0.15 65 977.4
20260507142659 13 242 1.6 1.6 0.00 0.15 0.15 65 977.3
20260507142156 12 246 3.2 3.2 0.00 0.15 0.15 67 977.5
20260507141652 12 227 3.2 3.2 0.00 0.15 0.15 75 977.6
20260507141149 12 143 0.0 0.0 0.00 0.15 0.15 75 977.7
20260507140645 12 158 0.0 0.0 0.00 0.15 0.15 76 977.8
20260507140143 12 122 0.0 3.2 0.00 0.15 0.15 80 977.8
20260507135640 12 119 0.0 3.2 0.00 0.15 0.15 78 977.7
20260507135137 12 119 1.6 3.2 0.00 0.15 0.15 76 977.9
20260507134633 11 199 0.0 0.0 0.00 0.15 0.15 79 977.9
20260507134130 10 242 0.0 0.0 0.00 0.15 0.15 84 978.0
20260507133626 10 242 0.0 0.0 0.00 0.15 0.15 84 978.0
20260507133123 10 125 0.0 0.0 0.00 0.15 0.15 85 978.2
20260507132620 10 246 0.0 0.0 0.00 0.15 0.15 86 978.1
20260507132116 10 246 0.0 0.0 0.00 0.15 0.15 86 978.1
20260507131613 10 245 0.0 0.0 0.00 0.15 0.15 86 978.2
20260507131111 10 246 0.0 0.0 0.00 0.15 0.15 87 978.0
20260507130608 10 127 0.0 3.2 0.00 0.15 0.15 87 978.2
20260507130106 10 124 0.0 0.0 0.00 0.15 0.15 86 978.0
20260507125604 10 124 0.0 1.6 0.00 0.15 0.15 87 978.1
20260507125101 10 129 0.0 0.0 0.00 0.15 0.15 85 978.2
20260507124557 10 126 0.0 0.0 0.00 0.15 0.15 89 978.1
20260507124055 10 126 0.0 0.0 0.00 0.15 0.15 90 978.0
20260507123553 10 126 0.0 0.0 0.00 0.15 0.15 91 978.4
20260507123050 9 205 0.0 0.0 0.00 0.15 0.15 93 978.1
20260507122545 9 205 0.0 0.0 0.00 0.15 0.15 94 978.0
20260507122041 9 205 0.0 0.0 0.00 0.15 0.15 95 978.4
20260507121537 9 155 0.0 0.0 0.00 0.15 0.15 97 978.3
20260507121033 9 155 0.0 0.0 0.00 0.15 0.15 97 978.2
20260507120529 8 155 0.0 0.0 0.00 0.15 0.15 98 978.2
20260507120026 8 155 0.0 0.0 0.00 0.15 0.15 98 978.2
20260507115522 8 148 0.0 0.0 0.00 0.15 0.15 99 978.1
20260507115018 8 142 0.0 0.0 0.00 0.15 0.15 99 978.0
20260507114514 8 140 0.0 0.0 0.00 0.15 0.15 99 977.7
20260507114012 8 139 0.0 0.0 0.00 0.15 0.15 99 977.7
20260507113508 8 139 0.0 0.0 0.00 0.15 0.15 99 977.7
20260507113006 8 139 0.0 0.0 0.00 0.15 0.15 99 977.7
20260507112503 8 139 0.0 0.0 0.00 0.15 0.15 99 977.7
20260507112000 8 139 0.0 0.0 0.00 0.15 0.15 99 977.6
20260507111457 8 139 0.0 0.0 0.00 0.15 0.15 99 977.4
20260507110953 8 139 0.0 0.0 0.00 0.15 0.15 99 977.2
20260507110450 8 139 0.0 0.0 0.00 0.15 0.15 99 977.3
20260507105947 8 139 0.0 0.0 0.00 0.15 0.15 99 977.4
20260507105443 8 139 0.0 0.0 0.00 0.15 0.15 99 977.3
20260507104940 8 139 0.0 0.0 0.00 0.15 0.15 99 977.4
20260507104437 8 139 0.0 0.0 0.00 0.15 0.15 99 977.2
20260507103933 8 139 0.0 0.0 0.00 0.15 0.15 99 977.1
20260507103430 8 139 0.0 0.0 0.00 0.15 0.15 99 977.1
20260507102925 8 139 0.0 0.0 0.00 0.15 0.15 99 977.2
20260507102422 8 130 0.0 0.0 0.00 0.15 0.15 99 977.4
20260507101919 8 130 0.0 0.0 0.00 0.15 0.15 99 977.1
20260507101414 8 130 0.0 0.0 0.00 0.15 0.15 99 977.0
20260507100911 8 130 0.0 0.0 0.00 0.15 0.15 99 977.1
20260507100408 8 130 0.0 0.0 0.00 0.15 0.15 99 977.1
20260507095907 8 130 0.0 0.0 0.00 0.15 0.15 99 977.1
20260507095403 8 130 0.0 0.0 0.00 0.15 0.15 99 977.1
20260507094900 8 130 0.0 0.0 0.00 0.15 0.15 99 977.0
20260507094357 8 130 0.0 0.0 0.00 0.15 0.15 99 977.1
20260507093854 8 130 0.0 0.0 0.00 0.15 0.15 99 977.1
20260507093352 8 130 0.0 0.0 0.00 0.15 0.15 99 976.9
20260507092850 8 130 0.0 0.0 0.00 0.15 0.15 99 977.0
20260507092346 8 130 0.0 0.0 0.00 0.15 0.15 99 977.1
20260507091843 8 130 0.0 0.0 0.00 0.15 0.15 99 977.1
20260507091339 8 130 0.0 0.0 0.00 0.15 0.15 99 976.7
20260507090834 8 130 0.0 0.0 0.00 0.15 0.15 99 976.7
20260507090331 8 130 0.0 0.0 0.00 0.15 0.15 99 976.8
20260507085828 8 130 0.0 0.0 0.00 0.15 0.15 99 976.8
20260507085325 8 130 0.0 0.0 0.00 0.15 0.15 99 977.0
20260507084823 8 130 0.0 0.0 0.00 0.15 0.15 99 977.0
20260507084319 8 130 0.0 0.0 0.00 0.15 0.15 99 977.1
20260507083816 8 130 0.0 0.0 0.00 0.15 0.15 99 976.9
20260507083313 8 130 0.0 0.0 0.00 0.15 0.15 99 976.9
20260507082809 9 130 0.0 0.0 0.00 0.15 0.15 99 976.9
20260507082306 8 130 0.0 0.0 0.00 0.15 0.15 99 976.6
20260507081802 9 130 0.0 0.0 0.00 0.15 0.15 99 976.8
20260507081258 9 130 0.0 0.0 0.00 0.15 0.15 99 976.7
20260507080755 9 130 0.0 0.0 0.00 0.15 0.15 99 976.8
20260507080251 9 128 0.0 0.0 0.00 0.15 0.15 99 976.7
20260507075746 9 128 0.0 0.0 0.00 0.15 0.15 99 977.0
20260507075243 9 128 0.0 0.0 0.00 0.15 0.15 99 977.0
20260507074738 8 128 0.0 0.0 0.00 0.15 0.15 99 976.9
20260507074237 8 128 0.0 0.0 0.00 0.15 0.15 99 977.2
20260507073733 8 128 0.0 0.0 0.00 0.15 0.15 99 977.0
20260507073230 8 128 0.0 0.0 0.00 0.15 0.15 99 977.0
20260507072728 8 145 0.0 0.0 0.00 0.15 0.15 99 977.0
20260507072225 9 146 0.0 0.0 0.00 0.15 0.15 99 976.9
20260507071723 9 146 0.0 0.0 0.00 0.15 0.15 99 976.7
20260507071218 9 146 0.0 0.0 0.00 0.15 0.15 99 976.9
20260507070716 9 146 0.0 0.0 0.00 0.15 0.15 99 976.8
20260507070213 9 167 0.0 0.0 0.00 0.15 0.15 99 976.7
20260507065709 9 167 0.0 0.0 0.00 0.15 0.15 99 976.9
20260507065206 9 183 0.0 0.0 0.00 0.15 0.15 99 976.8
20260507064704 9 187 0.0 0.0 0.00 0.15 0.15 99 977.0
20260507064202 9 126 0.0 0.0 0.00 0.15 0.15 99 976.8
20260507063659 9 126 0.0 0.0 0.00 0.15 0.15 98 977.0